Regional Weather Roundup
Issued by NWS Newport/Morehead, NC

Home | Current Version | Previous Version | Text Only | Print | Product List | Glossary On
Versions: 1 2 3 4 5 6 7 8 9 10 11 12 13 14 15 16 17 18 19 20 21 22 23 24 25 26 27 28 29 30 31 32 33 34 35 36 37 38 39 40 41 42 43 44 45 46 47 48 49 50
000
ASUS42 KMHX 301010
RWRMHX
WEATHER ROUNDUP FOR EASTERN NORTH CAROLINA
NATIONAL WEATHER SERVICE NEWPORT/MOREHEAD CITY NC
600 AM EDT WED JUL 30 2014

NOTE: "FAIR" INDICATES FEW OR NO CLOUDS BELOW 12,000 FEET
WITH NO SIGNIFICANT WEATHER AND/OR OBSTRUCTIONS TO VISIBILITY

NCZ015>017-031-032-045>047-102-103-301100-
NORTH COAST

CITY           SKY/WX    TMP DP  RH WIND       PRES   REMARKS
EDENTON        CLEAR     62  61  94 CALM      30.03R
ELIZABETH CITY CLEAR     62  59  90 NW3       30.03R
KITTY HAWK     SUNNY     72  58  62 CALM      30.00R
MANTEO         NOT AVBL

$$

NCZ045>047-081-094-103-104-301100-
CENTRAL COAST

CITY           SKY/WX    TMP DP  RH WIND       PRES   REMARKS
FRISCO         PTCLDY    72  63  73 NE5       29.99R
SWANQUARTER      N/A     66 N/A N/A NE3       29.97S

$$

NCZ095-097-098-100-101-301100-
SOUTHERN COAST

CITY           SKY/WX    TMP DP  RH WIND       PRES   REMARKS
BEAUFORT       CLEAR     71  65  81 NE3       29.99R
CEDAR ISLAND     N/A     77 N/A N/A N7G14     30.03R
JACKSONVILLE   CLEAR     68  66  93 N6        29.99R
NEWPORT        NOT AVBL
PINEY ISLAND   SUNNY     77  64  64 NE8       29.99R
WILMINGTON     CLEAR     68  67  96 NE5       29.98R


$$

NCZ011>013-027>030-043-044-078>080-089-090>093-098-301100-
COASTAL PLAIN

CITY           SKY/WX    TMP DP  RH WIND       PRES   REMARKS
AHOSKIE        PTCLDY    60  58  94 CALM      30.05R
CLINTON        CLEAR     64  63  97 CALM      30.01R
ELIZABETHTOWN  CLEAR     64  64  97 CALM      30.00R
GOLDSBORO      CLEAR     64  63  98 CALM      30.00R
GREENVILLE     LGT RAIN  63  63 100 N5        30.04R
HAVELOCK       CLEAR     69  67  93 CALM      30.00R
KENANSVILLE    CLEAR     62  60  95 CALM      30.01R
KINSTON        CLEAR     63  62  97 CALM      30.01S FOG
NEW BERN       CLEAR     72  64  76 E5        30.01R
RICHLANDS      CLEAR     64  61  88 CALM      30.01R
ROANOKE RAPIDS NOT AVBL
ROCKY MOUNT    PTCLDY    65  63  93 N7        30.03R
WASHINGTON     CLEAR     63  61  94 CALM      30.02R
WHITEVILLE     CLEAR     66  65  94 CALM      29.99R

$$

AMZ130-135-150-152-154-156-158-170-250-252-270-ANZ085-086-088-633-658-670-301100-
MARINE OBSERVATIONS

STATION/POSITION TIME  TEMP    WIND        PRES    WAVE   SWELL
                       AIR SEA DIR/SP/G            HT/PER HT/PER
                 (UTC) (F)     (DEG/KT/KT) (MB)    (FT/S) (FT/S)
CHESAPEAKE LIGHT NOT AVBL
BUOY 44014       1000   74 78  360/  8/ 10 1015.6    2/ 7   2/ 7
DUCK             1000   74 75   20/  8/  8 1015.5
2E DUCK          1000                        N/A     2/ 9
OREGON INLET     1000   74 78   30/  6/  9 1015.7
BUOY 44095       1000      78                N/A     3/ 8
20E OREGON INLET NOT AVBL
HATTERAS CG      1000   75 80   40/  6/  9 1015.7
DIAMOND BUOY     1000          VRB 12/ 16  1014.8    3/ 6   2/ 6
CAPE LOOKOUT     0900   77      50/ 13/ 14 1014.6
BEAUFORT LAB     1000   72 82   30/  3/  5 1014.9
30 SE NEW RIVER  1000   78 81   60/ 14/ 16 1014.9    3/ 8   2/ 8
5 SE WRIGHTSVILL 0900   75 81   70/ 10/ 10   N/A
BUOY 41002       0857   78 80  280/ 10/ 12 1013.9    6/ 7   5/ 7
BUOY 41004       1000   81 84   70/  8/ 10 1013.8    2/ 8   2/ 8

$$


USA.gov is the U.S. government's official web portal to all federal, state and local government web resources and services.